AEHF-6 (USA 298)

Last updated on Sun Apr 12 2026 00:02:55 GMT+0000 (Coordinated Universal Time)

1 45465U 20022B 26100.90622862 -.00000300 00000+0 00000+0 0 9996 2 45465 2.6997 300.2925 0046571 17.7380 344.9811 1.00278193 22341
UTC large
Height (km)
Speed (km/s)
/
Latitude / Longitude
Inclination (degrees)
Orbital Period (minutes)
Azimuth
Elevation
Range (km)
Doppler Factor

Next 0 passes for location: London (51.5072 / 0.1276)

Sorry there are no passes over London.
AEHF-6 (USA 298)